Temp
-7 -7 -7 -7 -7 -7 -7 -8 -9 -9 -8 -9 -8 -7 -8 -7 -8 -8 -8 -7 -7 -8 -8 -8 -7 -7 -8 -8 -7 -7 -7 -6 -6 -6 -6 -6 -7 -6 -6 -6 -7 -7 -6 -7
-7 -7 -7 -7 -7 -7 -8 -8 -8 -8 -8 -8 -9 -8 -9 -7 -7 -7 -8 -8 -8 -8 -8 -7 -7 -7 -7 -8 -8 -7 -7 -6 -7 -7 -6 -6 -7 -7 -7 -6 -7 -7 -7 -7
-7 -7 -7 -7 -7 -7 -8 -8 -7 -8 -9 -9 -9 -9 -8 -7 -7 -8 -8 -8 -8 -8 -8 -7 -7 -8 -8 -8 -8 -7 -7 -6 -7 -7 -7 -7 -7 -7 -6 -6 -6 -7 -7 -7
-7 -7 -7 -7 -8 -8 -9 -8 -8 -8 -8 -9 -9 -8 -7 -7 -7 -7 -8 -8 -8 -8 -8 -8 -8 -8 -8 -8 -9 -7 -7 -7 -7 -7 -7 -7 -6 -6 -6 -6 -7 -6 -6 -6
-7 -7 -8 -8 -8 -8 -8 -8 -9 -9 -8 -8 -8 -8 -8 -7 -7 -7 -8 -8 -8 -8 -8 -8 -8 -8 -8 -8 -8 -8 -7 -7 -6 -7 -6 -7 -7 -6 -6 -6 -6 -6 -6 -6
-7 -8 -8 -8 -8 -8 -8 -8 -9 -9 -8 -8 -8 -8 -8 -7 -7 -7 -7 -7 -7 -7 -8 -8 -8 -8 -8 -8 -8 -7 -7 -6 -6 -6 -6 -7 -7 -7 -6 -6 -6 -6 -6 -6
-8 -9 -9 -8 -8 -8 -8 -8 -9 -9 -8 -8 -8 -7 -8 -8 -8 -8 -8 -8 -7 -7 -7 -7 -8 -8 -7 -7 -7 -7 -6 -6 -6 -5 -6 -6 -6 -7 -6 -6 -6 -6 -6 -6
-9 -9 -9 -9 -8 -8 -8 -9 -9 -9 -8 -8 -7 -7 -7 -8 -8 -7 -7 -8 -7 -7 -7 -8 -8 -7 -7 -7 -8 -7 -6 -6 -5 -6 -6 -6 -5 -7 -6 -6 -6 -7 -7 -6
-9 -9 -9 -9 -9 -8 -9 -9 -9 -9 -8 -8 -8 -8 -8 -8 -7 -7 -8 -8 -7 -8 -8 -8 -8 -7 -7 -7 -8 -8 -7 -6 -6 -7 -5 -6 -7 -7 -6 -6 -6 -6 -7 -7
-9 -9 -9 -9 -9 -9 -8 -9 -9 -8 -9 -8 -8 -8 -8 -7 -7 -7 -8 -7 -8 -8 -9 -8 -8 -7 -7 -7 -7 -8 -8 -7 -7 -7 -7 -7 -7 -7 -7 -6 -7 -6 -7 -7
-9 -9 -9 -9 -9 -9 -9 -9 -9 -9 -8 -8 -8 -8 -8 -8 -8 -8 -8 -8 -8 -8 -8 -8 -8 -8 -7 -7 -8 -8 -8 -7 -7 -7 -7 -7 -8 -7 -7 -7 -7 -7 -7 -7
-9 -9 -9 -9 -9 -9 -9 -8 -8 -9 -9 -9 -8 -8 -8 -8 -7 -8 -8 -8 -8 -8 -8 -8 -8 -8 -8 -8 -8 -8 -8 -7 -7 -7 -7 -8 -8 -7 -7 -7 -8 -7 -7 -8
-8 -8 -9 -9 -9 -9 -9 -8 -9 -9 -8 -8 -8 -7 -8 -8 -7 -8 -8 -8 -8 -8 -9 -9 -8 -8 -8 -8 -8 -8 -8 -8 -7 -8 -8 -8 -8 -7 -7 -8 -8 -7 -7 -7
-9 -9 -9 -9 -9 -9 -9 -9 -9 -8 -8 -8 -8 -7 -8 -8 -8 -8 -8 -8 -8 -8 -9 -9 -9 -9 -8 -8 -8 -8 -8 -8 -8 -7 -8 -8 -7 -8 -8 -8 -8 -8 -8 -8
-10 -9 -9 -9 -9 -8 -8 -8 -8 -8 -8 -8 -8 -8 -8 -8 -8 -8 -8 -8 -8 -8 -9 -9 -9 -8 -8 -8 -8 -8 -8 -8 -8 -8 -8 -8 -8 -8 -7 -8 -8 -8 -8 -8
-10 -10 -10 -9 -9 -9 -8 -8 -8 -8 -8 -8 -8 -8 -8 -8 -8 -9 -9 -8 -8 -9 -9 -9 -9 -8 -8 -8 -8 -8 -8 -8 -8 -8 -8 -8 -8 -9 -8 -8 -8 -8 -8 -8
-10 -10 -9 -9 -9 -9 -8 -8 -8 -8 -8 -8 -8 -8 -8 -8 -9 -9 -9 -9 -9 -9 -9 -9 -9 -8 -8 -8 -8 -8 -8 -8 -8 -8 -8 -8 -8 -8 -8 -8 -8 -8 -7 -7
-10 -9 -8 -8 -8 -8 -8 -8 -8 -8 -8 -8 -8 -8 -8 -9 -9 -9 -9 -10 -10 -10 -9 -9 -9 -9 -9 -9 -8 -8 -8 -8 -8 -8 -8 -8 -8 -8 -8 -8 -8 -8 -8 -8
-9 -9 -9 -9 -8 -8 -8 -8 -8 -8 -8 -8 -8 -8 -9 -9 -9 -9 -9 -9 -9 -9 -9 -9 -9 -9 -8 -8 -8 -8 -8 -7 -7 -8 -8 -8 -8 -8 -7 -8 -8 -9 -9 -8
-9 -9 -9 -8 -8 -8 -8 -8 -8 -8 -8 -9 -9 -9 -9 -9 -9 -9 -9 -9 -9 -9 -8 -8 -8 -8 -9 -9 -8 -8 -8 -7 -7 -7 -7 -8 -8 -8 -8 -8 -8 -9 -10 -9
-9 -9 -9 -9 -8 -8 -8 -8 -8 -9 -9 -9 -9 -9 -9 -9 -9 -9 -9 -8 -8 -8 -8 -8 -8 -9 -8 -8 -8 -8 -8 -8 -8 -7 -7 -7 -7 -8 -8 -9 -8 -8 -8 -9
-9 -9 -9 -9 -8 -8 -9 -8 -9 -9 -9 -9 -9 -9 -9 -9 -8 -8 -8 -8 -8 -8 -8 -8 -8 -7 -7 -7 -7 -8 -8 -8 -8 -8 -8 -8 -7 -7 -8 -9 -9 -8 -8 -8
-9 -9 -9 -9 -9 -9 -8 -8 -9 -9 -9 -9 -9 -9 -9 -9 -8 -9 -8 -8 -8 -8 -8 -8 -8 -8 -8 -8 -8 -8 -8 -8 -9 -9 -9 -9 -9 -8 -8 -9 -9 -9 -9 -9
-9 -9 -9 -9 -9 -9 -9 -9 -9 -9 -9 -9 -9 -9 -8 -8 -9 -8 -8 -8 -8 -8 -8 -8 -8 -9 -9 -9 -9 -9 -9 -9 -10 -10 -10 -10 -9 -9 -9 -9 -10 -10 -9 -9
-10 -10 -10 -9 -9 -9 -9 -9 -9 -9 -9 -9 -9 -9 -9 -9 -8 -8 -8 -8 -8 -8 -8 -9 -9 -9 -9 -9 -9 -10 -10 -10 -10 -10 -10 -10 -10 -10 -10 -9 -9 -10 -10 -10
-10 -10 -10 -9 -9 -9 -9 -9 -9 -9 -9 -9 -9 -9 -9 -8 -8 -8 -8 -9 -9 -9 -9 -9 -9 -9 -9 -9 -10 -10 -10 -10 -11 -11 -11 -11 -11 -11 -11 -10 -10 -11 -10 -10
Height
5909 5910 5911 5912 5913 5914 5915 5915 5914 5913 5913 5912 5911 5910 5909 5909 5909 5905 5900 5897 5895 5895 5894 5893 5890 5886 5885 5886 5888 5890 5891 5893 5894 5896 5899 5900 5901 5902 5904 5905 5907 5908 5908 5909
5909 5909 5910 5911 5912 5913 5913 5913 5913 5913 5913 5912 5910 5908 5908 5909 5908 5904 5900 5897 5895 5895 5894 5891 5888 5887 5883 5884 5885 5887 5888 5888 5890 5893 5895 5897 5899 5900 5901 5903 5904 5905 5906 5907
5907 5909 5910 5910 5911 5912 5911 5912 5913 5912 5913 5912 5910 5908 5907 5906 5904 5900 5897 5897 5895 5894 5891 5888 5886 5883 5880 5881 5882 5884 5886 5885 5886 5889 5891 5893 5897 5899 5899 5900 5902 5903 5904 5905
5907 5908 5908 5909 5910 5910 5910 5911 5912 5912 5913 5912 5910 5908 5907 5907 5904 5900 5896 5893 5892 5891 5888 5885 5883 5884 5885 5882 5883 5882 5881 5880 5880 5881 5886 5889 5893 5896 5897 5898 5899 5900 5901 5902
5906 5906 5907 5907 5909 5909 5909 5910 5911 5912 5912 5911 5910 5908 5907 5905 5903 5899 5895 5893 5889 5888 5887 5884 5883 5883 5884 5882 5879 5876 5873 5873 5866 5872 5877 5883 5887 5890 5893 5895 5896 5897 5898 5900
5903 5904 5905 5906 5906 5907 5907 5909 5910 5911 5911 5912 5910 5909 5906 5904 5901 5898 5896 5892 5886 5887 5884 5883 5882 5882 5880 5878 5873 5869 5864 5865 5865 5864 5870 5875 5882 5885 5889 5892 5893 5894 5895 5896
5902 5903 5904 5905 5905 5905 5905 5908 5909 5910 5910 5910 5908 5908 5908 5905 5903 5900 5897 5894 5890 5886 5883 5881 5881 5880 5877 5873 5868 5863 5858 5856 5853 5842 5861 5869 5873 5879 5885 5886 5888 5890 5892 5891
5900 5904 5904 5904 5904 5904 5905 5907 5908 5909 5909 5909 5908 5907 5907 5906 5904 5901 5898 5893 5888 5885 5882 5881 5880 5879 5876 5870 5864 5858 5852 5850 5847 5850 5856 5866 5868 5873 5879 5882 5883 5886 5888 5888
5900 5902 5903 5903 5903 5905 5904 5906 5907 5907 5908 5908 5907 5905 5905 5903 5903 5900 5896 5893 5889 5886 5883 5881 5878 5877 5875 5870 5864 5858 5850 5846 5839 5843 5851 5860 5867 5869 5875 5877 5880 5883 5885 5885
5899 5902 5902 5903 5904 5904 5904 5905 5906 5906 5905 5905 5904 5903 5902 5902 5901 5898 5893 5889 5887 5884 5881 5879 5878 5876 5873 5870 5866 5860 5856 5852 5851 5852 5855 5858 5863 5868 5872 5874 5876 5877 5879 5882
5899 5900 5902 5902 5902 5902 5903 5904 5904 5905 5905 5904 5902 5904 5901 5899 5898 5896 5893 5889 5886 5884 5883 5879 5876 5875 5871 5870 5868 5865 5861 5859 5856 5855 5857 5859 5861 5863 5868 5869 5872 5874 5875 5877
5896 5898 5899 5900 5900 5899 5900 5900 5901 5901 5901 5900 5899 5901 5899 5897 5896 5895 5893 5889 5887 5885 5882 5879 5876 5873 5871 5868 5867 5866 5864 5862 5859 5858 5859 5858 5861 5862 5864 5866 5868 5869 5870 5871
5895 5896 5896 5897 5898 5897 5897 5897 5896 5896 5897 5897 5896 5897 5894 5893 5893 5893 5890 5888 5886 5884 5881 5879 5876 5873 5871 5868 5865 5863 5862 5863 5861 5860 5860 5860 5860 5860 5859 5860 5862 5864 5865 5866
5891 5892 5893 5894 5894 5894 5893 5892 5892 5892 5892 5893 5893 5892 5891 5890 5889 5888 5886 5885 5883 5881 5878 5877 5875 5872 5869 5867 5865 5862 5861 5861 5861 5860 5859 5858 5857 5856 5856 5855 5856 5856 5858 5860
5888 5889 5889 5889 5889 5888 5888 5888 5887 5887 5888 5889 5889 5888 5887 5885 5885 5884 5882 5882 5879 5877 5874 5873 5872 5870 5868 5865 5863 5862 5860 5857 5856 5855 5854 5852 5854 5853 5851 5849 5849 5851 5852 5853
5884 5884 5885 5884 5884 5884 5884 5884 5884 5885 5885 5884 5884 5883 5882 5881 5880 5879 5876 5876 5874 5872 5870 5869 5867 5865 5863 5862 5860 5858 5857 5856 5854 5852 5851 5851 5851 5848 5846 5844 5844 5843 5844 5845
5878 5879 5879 5880 5879 5878 5879 5879 5880 5880 5879 5880 5878 5877 5875 5874 5872 5871 5870 5870 5868 5867 5866 5863 5860 5859 5857 5856 5854 5853 5852 5851 5849 5849 5848 5846 5844 5843 5841 5838 5837 5837 5836 5836
5871 5872 5872 5872 5873 5873 5875 5874 5874 5874 5874 5873 5870 5869 5867 5866 5866 5865 5864 5863 5862 5860 5859 5856 5854 5852 5850 5850 5848 5846 5844 5843 5841 5840 5840 5840 5837 5837 5835 5834 5833 5831 5831 5830
5864 5865 5865 5865 5866 5867 5870 5870 5869 5867 5868 5866 5864 5862 5860 5859 5859 5859 5857 5856 5854 5852 5850 5849 5847 5845 5844 5843 5842 5840 5839 5837 5833 5831 5832 5831 5829 5829 5826 5826 5828 5829 5826 5824
5857 5859 5860 5860 5861 5860 5862 5863 5862 5860 5862 5857 5856 5854 5853 5852 5852 5851 5849 5848 5847 5845 5843 5841 5840 5839 5838 5836 5834 5833 5831 5829 5828 5825 5823 5822 5822 5821 5821 5820 5819 5821 5821 5820
5850 5851 5852 5853 5853 5854 5855 5856 5855 5855 5855 5851 5849 5847 5846 5845 5845 5844 5843 5841 5838 5835 5833 5831 5831 5829 5828 5828 5826 5824 5822 5819 5818 5816 5814 5812 5810 5810 5810 5809 5810 5810 5810 5811
5844 5844 5846 5846 5846 5848 5849 5848 5849 5847 5846 5844 5842 5840 5839 5838 5837 5837 5835 5834 5831 5828 5825 5822 5820 5819 5818 5816 5814 5812 5811 5808 5805 5803 5800 5798 5797 5796 5796 5796 5796 5800 5801 5800
5838 5839 5840 5841 5841 5841 5841 5840 5839 5838 5837 5836 5835 5833 5832 5831 5830 5829 5827 5825 5822 5818 5815 5813 5811 5809 5807 5804 5802 5800 5797 5795 5793 5790 5786 5784 5783 5781 5783 5783 5784 5787 5788 5786
5830 5831 5831 5833 5833 5833 5832 5831 5830 5829 5828 5827 5826 5826 5825 5823 5821 5818 5816 5813 5810 5808 5806 5804 5802 5800 5798 5794 5792 5790 5788 5785 5781 5779 5776 5772 5768 5766 5766 5769 5771 5774 5777 5778
5824 5824 5824 5825 5825 5824 5823 5822 5821 5820 5819 5818 5817 5817 5817 5815 5812 5809 5806 5803 5800 5796 5794 5791 5789 5786 5784 5781 5780 5778 5776 5774 5772 5768 5766 5764 5760 5756 5754 5752 5756 5759 5763 5767
5816 5816 5816 5815 5815 5815 5814 5813 5812 5810 5810 5809 5808 5807 5806 5804 5803 5800 5798 5795 5792 5789 5785 5783 5780 5777 5774 5771 5768 5764 5761 5759 5758 5758 5756 5753 5750 5747 5743 5742 5742 5745 5748 5752
Wind_Speed
6 5 8 10 11 11 7 9 10 9 8 8 11 7 12 11 15 16 18 19 20 20 16 13 16 9 11 11 12 15 16 17 17 18 15 14 15 13 15 12 12 11 9 8
6 8 10 11 13 11 8 11 13 7 9 9 8 8 13 13 18 17 15 16 18 18 17 19 23 10 5 10 14 16 19 16 18 19 18 18 17 16 16 15 15 15 12 12
8 9 11 12 12 11 10 14 9 2 7 4 8 9 11 14 19 20 12 11 12 16 15 18 18 9 10 14 16 18 21 20 19 22 21 20 18 19 17 15 14 14 15 16
9 9 12 10 11 9 14 11 2 3 1 3 6 10 10 12 16 16 17 12 4 11 12 11 14 11 10 16 16 19 23 23 24 24 23 23 21 18 15 16 17 17 18 18
10 7 8 10 12 10 14 8 6 3 5 1 8 8 12 10 12 14 15 11 7 4 5 6 11 9 12 15 19 26 28 31 33 29 25 25 22 19 17 19 20 16 16 15
10 8 7 9 10 11 10 7 11 8 7 0 5 9 9 16 15 19 25 29 18 6 5 5 7 8 10 13 18 26 20 32 34 33 29 27 24 20 21 21 18 16 15 18
8 8 7 6 6 7 10 12 13 10 7 6 7 7 9 13 13 19 24 29 19 7 12 11 11 11 11 13 16 19 22 24 39 36 38 29 26 23 24 22 18 17 16 17
14 8 7 3 6 6 10 18 15 12 9 11 14 16 11 9 11 17 23 22 9 8 12 17 13 16 15 17 18 22 17 18 27 37 37 30 31 27 27 23 20 17 16 15
12 9 11 7 2 9 17 14 14 15 15 17 17 17 15 17 19 20 23 16 14 11 15 17 16 15 15 17 18 19 6 11 13 24 29 37 31 26 26 21 19 17 18 16
14 12 12 8 8 11 13 18 13 13 11 12 14 17 23 22 22 24 25 16 12 13 14 15 15 15 14 16 16 17 12 11 10 7 18 22 25 26 20 20 21 21 19 21
13 12 11 11 9 12 14 11 12 14 14 18 16 14 22 21 24 20 23 20 10 9 11 13 15 15 14 13 14 12 12 10 8 10 5 14 18 22 22 22 23 22 20 21
11 12 12 11 15 14 13 13 14 17 19 18 14 16 20 19 18 18 19 15 9 9 9 11 14 15 14 12 11 13 11 10 7 4 1 2 10 15 20 21 21 21 21 20
12 8 6 10 14 19 22 22 23 20 20 16 17 18 18 18 18 17 18 12 9 12 12 10 12 17 18 15 13 12 11 11 11 6 5 5 6 10 15 22 22 23 21 20
8 10 12 13 18 20 23 21 19 17 15 15 17 17 17 18 18 17 15 12 10 15 11 14 14 14 19 18 15 15 14 12 8 8 5 9 12 12 16 15 17 18 20 23
16 16 17 19 17 17 17 18 18 16 15 18 18 19 19 21 20 17 16 14 16 12 5 9 17 18 15 16 17 15 13 15 15 12 15 14 13 16 16 14 17 17 19 22
22 28 18 15 18 18 17 17 17 15 16 19 20 22 23 22 17 14 15 14 14 15 19 23 20 21 17 17 18 17 17 16 19 21 21 19 18 19 20 25 20 22 22 22
17 24 29 20 22 22 20 18 18 19 20 22 25 26 25 20 15 15 15 15 16 18 20 25 25 23 21 21 22 20 21 22 22 22 23 26 25 26 26 26 24 24 25 23
29 29 26 21 21 23 22 21 22 23 24 25 27 26 21 19 17 17 18 20 22 24 25 26 25 24 24 24 23 21 22 24 26 27 25 27 31 35 38 29 28 26 27 30
33 30 27 25 21 24 20 20 23 26 26 25 23 21 21 21 21 22 24 24 27 27 28 28 27 28 29 29 28 28 27 26 30 33 32 31 33 34 37 34 33 32 35 34
29 26 28 25 24 25 23 22 25 27 22 24 22 23 25 25 22 22 26 29 31 32 33 34 34 32 32 33 31 31 31 31 32 34 38 38 38 39 39 36 37 36 36 43
27 27 26 26 26 25 24 22 22 23 22 22 24 27 27 27 24 25 27 29 31 33 34 34 34 34 33 33 33 35 35 37 38 39 41 41 42 41 42 41 39 40 40 40
27 28 27 27 26 25 22 22 22 23 24 26 26 24 24 26 28 29 31 32 35 35 35 35 33 32 32 33 35 36 37 40 42 44 46 47 47 47 47 45 43 42 43 43
28 28 28 27 25 23 21 22 24 27 28 28 27 25 27 29 31 32 33 34 34 34 33 33 32 32 31 32 32 34 35 37 38 41 46 49 51 54 52 51 48 45 44 45
29 27 27 26 25 25 26 28 29 30 30 29 28 28 29 31 32 33 33 35 35 33 32 31 31 30 29 33 34 33 34 37 39 40 40 43 49 51 56 55 53 48 45 43
27 26 26 27 28 29 31 32 31 30 30 30 30 30 31 31 32 33 33 35 36 37 36 34 34 35 36 37 36 37 37 36 36 37 40 40 41 46 50 54 55 52 47 45
27 27 28 29 30 31 33 33 33 33 32 32 32 33 35 35 34 34 33 34 35 35 36 36 36 36 37 39 40 39 39 40 39 34 35 35 36 37 42 46 49 49 48 44
Wind_Direction
192 214 229 250 260 271 279 284 234 260 323 355 335 17 337 350 357 345 348 357 8 4 354 322 342 260 248 252 245 235 239 235 232 240 235 223 229 226 232 225 241 252 250 246
197 226 255 268 276 284 271 231 235 281 349 351 31 353 327 342 356 356 349 342 353 350 338 331 338 297 263 246 251 239 231 233 234 237 242 233 233 233 230 232 233 243 241 249
214 249 261 276 283 285 248 233 248 360 323 50 349 322 337 347 10 7 352 331 330 341 349 341 338 291 263 229 240 245 235 229 234 230 233 230 235 236 238 241 243 242 245 239
241 267 280 286 288 268 226 239 213 102 198 7 323 328 346 20 29 31 28 13 336 346 352 355 339 330 320 258 261 246 237 232 232 228 227 229 232 237 243 251 250 249 246 239
252 267 276 264 250 251 226 212 164 171 225 356 352 334 23 31 7 19 30 24 328 259 354 349 341 321 303 298 288 275 260 239 228 222 227 225 227 235 241 245 253 257 255 248
221 236 251 263 257 243 223 211 185 202 228 158 55 31 18 9 12 30 27 15 7 331 348 337 339 316 319 318 304 290 275 241 241 240 223 215 220 226 234 238 244 255 260 277
209 199 215 217 224 232 226 212 198 216 247 278 310 336 2 30 48 21 10 4 357 338 343 351 328 323 342 335 321 307 283 264 240 218 225 218 217 219 227 234 242 252 266 280
191 185 185 224 238 235 179 188 213 222 255 297 303 307 320 326 341 348 352 356 338 311 332 341 332 330 346 348 342 333 290 268 255 235 229 217 220 218 222 229 236 250 263 282
185 188 190 197 182 180 184 198 225 247 264 283 294 301 316 325 335 344 2 3 6 25 347 341 345 331 346 352 350 345 11 338 348 202 218 213 214 218 222 226 238 241 250 266
190 192 202 213 224 230 226 222 242 265 294 300 301 318 320 327 349 347 347 352 3 1 357 353 4 342 343 347 1 2 16 35 33 227 200 207 215 221 221 234 239 239 248 255
199 214 226 233 236 266 279 265 254 270 292 303 293 319 332 327 337 344 354 351 345 360 354 346 353 356 346 339 350 9 359 345 24 47 149 216 239 216 227 238 242 244 245 253
213 223 237 257 248 264 273 275 290 300 289 313 296 317 321 321 331 332 345 334 320 331 338 350 339 343 347 337 336 343 6 359 357 8 205 133 205 219 231 238 241 243 241 241
218 244 286 284 280 271 271 278 286 288 279 291 304 320 313 314 321 325 329 315 297 322 297 328 342 337 338 335 324 317 329 346 354 325 293 282 264 268 234 229 234 243 240 237
262 292 280 270 269 270 274 281 282 281 276 291 311 309 306 310 314 309 304 298 284 301 273 295 306 320 324 322 325 313 305 302 305 314 279 267 250 262 252 236 238 241 236 240
263 277 273 277 277 260 258 262 275 286 286 292 297 299 302 306 306 297 289 285 280 275 278 286 288 302 317 313 307 311 300 286 280 269 269 261 258 253 255 235 242 244 242 237
269 271 272 275 269 260 262 268 275 278 284 287 291 294 298 298 296 286 279 275 275 273 280 286 294 300 304 309 301 294 288 282 270 271 270 273 275 269 269 267 244 232 233 236
236 259 265 265 258 262 273 280 282 283 285 287 291 294 297 296 294 295 292 291 287 283 281 287 296 300 303 306 300 289 282 279 278 271 267 265 263 261 257 254 264 262 250 233
273 275 275 282 265 258 267 279 282 283 286 291 292 291 290 290 290 287 283 282 282 284 287 290 292 296 299 301 299 289 279 278 276 277 273 269 269 266 267 261 253 260 264 253
269 275 280 278 272 270 268 273 281 284 289 290 285 280 281 283 282 278 279 278 279 283 284 286 290 293 294 291 288 283 278 275 277 276 272 272 271 271 274 276 270 256 263 265
266 268 270 276 274 273 274 280 283 283 287 280 283 283 285 286 283 284 284 287 288 288 289 292 293 291 288 286 282 280 279 277 275 273 276 273 269 272 272 273 275 270 272 266
268 270 271 272 271 272 276 276 272 274 271 281 284 281 279 280 283 284 288 294 297 298 295 291 286 284 281 275 274 275 275 274 274 274 274 274 275 272 270 272 273 277 278 265
264 268 268 268 271 273 276 269 273 274 277 278 274 271 271 274 281 289 295 296 295 294 291 288 287 286 285 285 285 284 281 278 277 275 274 274 274 274 274 272 270 270 273 276
265 266 268 268 271 270 269 275 279 279 275 273 271 270 272 279 288 292 291 294 293 293 293 293 292 292 293 291 289 288 286 284 283 282 281 276 273 273 272 274 274 273 273 276
270 270 270 272 275 276 281 283 282 280 276 270 267 269 276 288 288 288 290 296 301 301 297 296 295 296 295 290 290 289 285 284 284 283 281 282 281 277 271 270 272 273 272 272
270 270 269 267 271 272 274 277 280 277 273 267 265 268 278 285 288 292 295 298 302 303 303 302 301 300 298 296 296 294 290 287 282 279 279 282 282 282 280 276 272 272 271 271
264 268 271 273 275 277 278 280 281 280 277 275 274 277 282 289 292 295 296 296 298 298 298 298 298 298 296 297 296 295 291 287 283 279 281 282 281 281 283 281 279 277 273 270